EW2149 Weather Reports


Display with metric or nautical units.
time (UTC)temp
F
wind
direction
speed
MPH
gust
MPH
rain 1hr
in
rain 24hr
in
rain mn
in
humidity
%
barometer
mb
20191020060013 51 0 0.0 0.0 0.00 0.31 0.15 96 1007.9
20191020051012 51 0 0.0 0.0 0.00 0.31 0.15 96 1007.8
20191020050012 51 0 0.0 0.0 0.00 0.31 0.15 96 1008.0
20191020045012 51 0 0.0 0.0 0.00 0.31 0.15 96 1008.0
20191020044012 51 0 0.0 0.0 0.01 0.31 0.15 96 1008.1
20191020041016 51 0 0.0 0.0 0.02 0.31 0.15 96 1007.9
20191020040016 51 0 0.0 0.0 0.02 0.31 0.15 96 1008.0
20191020035016 51 0 0.0 0.0 0.02 0.31 0.15 96 1008.1
20191020033016 51 0 0.0 0.0 0.01 0.30 0.14 96 1008.0
20191020032016 51 0 0.0 0.0 0.01 0.30 0.14 96 1007.9
20191020030016 51 0 0.0 0.0 0.00 0.29 0.13 96 1007.7
20191020025015 51 0 0.0 0.0 0.00 0.29 0.13 95 1007.6
20191020024015 51 0 0.0 0.0 0.00 0.29 0.13 95 1007.6
20191020023015 51 0 0.0 0.0 0.00 0.29 0.13 95 1007.5
20191020022015 51 0 0.0 0.0 0.00 0.29 0.13 95 1007.3
20191020021015 51 0 0.0 0.0 0.01 0.29 0.13 95 1007.3
20191020020015 51 157 1.0 3.0 0.02 0.29 0.13 95 1007.3
20191019234012 51 0 0.0 0.0 0.02 0.18 0.02 95 1008.1
20191019231012 51 0 0.0 0.0 0.02 0.17 0.02 95 1008.0
20191019224012 51 0 0.0 0.0 0.02 0.17 0.01 94 1008.0
20191019221016 51 0 0.0 0.0 0.01 0.16 0.00 94 1008.0
20191019215016 52 0 0.0 0.0 0.01 0.16 0.16 94 1007.8
20191019214016 52 0 0.0 0.0 0.00 0.15 0.15 94 1007.9
20191019213015 52 0 0.0 0.0 0.00 0.15 0.15 94 1007.8
20191019212016 52 0 0.0 0.0 0.00 0.15 0.15 94 1007.8
20191019205015 52 0 0.0 0.0 0.00 0.15 0.15 94 1007.8
20191019202015 53 157 6.0 6.0 0.00 0.15 0.15 95 1007.8
20191019201015 53 0 0.0 0.0 0.00 0.15 0.15 92 1007.6
20191019200014 53 0 0.0 0.0 0.00 0.15 0.15 92 1007.5
20191019195014 53 0 0.0 0.0 0.00 0.15 0.15 92 1007.4
20191019194014 53 0 0.0 0.0 0.00 0.15 0.15 92 1007.6
20191019193013 53 0 0.0 0.0 0.00 0.15 0.15 92 1007.2
20191019192014 53 0 0.0 0.0 0.00 0.15 0.15 92 1007.3
20191019190013 53 0 0.0 0.0 0.00 0.15 0.15 92 1007.0
20191019184013 53 0 0.0 0.0 0.00 0.15 0.15 92 1006.8
20191019182012 53 0 0.0 0.0 0.00 0.15 0.15 92 1006.7
20191019175012 53 0 0.0 0.0 0.00 0.16 0.15 92 1006.6
20191019174012 53 0 0.0 0.0 0.00 0.16 0.15 92 1006.5
20191019172011 53 0 0.0 0.0 0.00 0.16 0.15 92 1006.4
20191019171011 53 0 0.0 0.0 0.00 0.16 0.15 92 1006.0
20191019170011 53 0 0.0 0.0 0.00 0.16 0.15 92 1006.1
20191019165011 53 0 0.0 5.0 0.00 0.16 0.15 92 1006.1
20191019164011 53 0 0.0 0.0 0.00 0.16 0.15 92 1006.0
20191019163011 53 135 3.0 11.0 0.00 0.16 0.15 92 1006.1
20191019161010 53 0 0.0 3.0 0.02 0.16 0.15 92 1006.0
20191019160016 53 180 1.0 5.0 0.06 0.16 0.15 92 1006.0
20191019154015 54 180 3.0 10.0 0.07 0.16 0.15 93 1006.2
20191019152015 54 202 0.0 12.0 0.06 0.15 0.14 93 1006.1
20191019151015 55 202 3.0 6.0 0.06 0.14 0.13 92 1006.1
20191019150015 55 0 0.0 4.0 0.02 0.10 0.09 92 1005.9
20191019145015 55 202 5.0 9.0 0.01 0.09 0.09 92 1006.0
20191019144015 55 180 6.0 11.0 0.00 0.09 0.08 92 1006.0
20191019143014 55 157 1.0 10.0 0.01 0.09 0.08 92 1006.0
20191019140013 55 180 5.0 12.0 0.03 0.09 0.08 92 1005.7
20191019135013 55 180 5.0 11.0 0.06 0.09 0.08 93 1005.8
20191019134013 55 202 5.0 11.0 0.06 0.09 0.08 92 1005.9
20191019133013 55 180 6.0 9.0 0.06 0.08 0.07 92 1005.8
20191019132013 55 180 6.0 12.0 0.05 0.07 0.06 92 1005.6
20191019131013 55 202 2.0 13.0 0.05 0.07 0.06 90 1005.6
20191019130013 56 180 4.0 12.0 0.03 0.06 0.05 88 1005.6
20191019121012 56 157 1.0 6.0 0.00 0.02 0.02 88 1005.5
20191019115015 56 180 10.0 15.0 0.00 0.02 0.02 88 1005.7
20191019114012 56 112 8.0 16.0 0.00 0.02 0.02 89 1005.9
20191019113012 56 112 4.0 6.0 0.00 0.02 0.02 89 1005.9
20191019111012 56 157 5.0 12.0 0.00 0.02 0.02 87 1006.0
20191019110013 56 135 5.0 11.0 0.00 0.02 0.02 88 1006.0
20191019103015 56 157 7.0 11.0 0.00 0.02 0.02 90 1006.2
20191019093012 53 135 5.0 11.0 0.01 0.05 0.02 93 1006.6
20191019092012 53 135 3.0 13.0 0.01 0.05 0.02 93 1006.6
20191019091012 53 112 8.0 12.0 0.01 0.05 0.02 93 1006.5
20191019090012 53 112 11.0 15.0 0.01 0.05 0.02 93 1006.5
20191019085012 52 135 5.0 13.0 0.02 0.05 0.02 93 1006.4
20191019084011 52 112 5.0 13.0 0.02 0.05 0.02 93 1006.5
20191019082013 52 112 6.0 13.0 0.01 0.04 0.01 92 1006.3
20191019081011 52 112 3.0 12.0 0.01 0.04 0.01 92 1006.4
20191019075019 52 135 4.0 11.0 0.00 0.03 0.00 91 1006.5
20191019073018 52 112 7.0 10.0 0.00 0.03 0.00 91 1006.5
20191019065022 52 135 4.0 8.0 0.00 0.03 0.00 90 1006.4
20191019063022 52 157 5.0 11.0 0.00 0.03 0.00 90 1006.4
20191019062024 52 157 5.0 12.0 0.00 0.03 0.00 89 1006.5